Regional Weather Roundup
Issued by NWS

Home | Current Version | Previous Version | Text Only | Print | Product List | Glossary Off
Versions: 1 2 3 4 5 6 7 8 9 10 11 12 13 14 15 16 17 18 19 20 21 22 23 24 25 26 27 28 29 30 31 32 33 34 35 36 37 38 39 40 41 42 43 44 45 46 47 48 49 50

000
ASUS43 KLMK 221902
RWRKY
KENTUCKY REGIONAL WEATHER ROUNDUP
NATIONAL WEATHER SERVICE LOUISVILLE KY
300 PM EDT TUE JUL 22 2014

NOTE "FAIR" INDICATES FEW OR NO CLOUDS BELOW 12,000 FEET
WITH NO SIGNIFICANT WEATHER AND/OR OBSTRUCTIONS TO VISIBILITY.

KYZ001>023-026-027-061>063-070>075-222000-
WESTERN AND SOUTH CENTRAL KENTUCKY

CITY           SKY/WX    TMP DP  RH WIND       PRES   REMARKS
PADUCAH        SUNNY     90  69  50 CALM      30.07F HX  94
HENDERSON      SUNNY     91  70  49 S5        30.06F HX  97
OWENSBORO      MOSUNNY   92  71  50 S8        30.07F HX  98
HOPKINSVILLE   MOSUNNY   91  68  47 VRB1      30.07F HX  94
BOWLING GREEN  PTSUNNY   91  67  44 S8        30.08F HX  94
GLASGOW        MOSUNNY   90  66  44 SW5       30.10F HX  92
$$

KYZ024-025-028>034-038-045-046-053-222000-
NORTH CENTRAL KENTUCKY

CITY           SKY/WX    TMP DP  RH WIND       PRES   REMARKS
LOUISVILLE/SDF MOSUNNY   92  67  43 VRB5      30.06F HX  95
LOUISVILLE/LOU MOSUNNY   90  67  46 SW6       30.07F HX  93
FORT KNOX      MOSUNNY   90  74  58 VRB5      30.07F HX  98
$$

KYZ035>037-039>044-047>052-055>060-089>105-222000-
NORTHEAST KENTUCKY

CITY           SKY/WX    TMP DP  RH WIND       PRES   REMARKS
LEXINGTON      MOSUNNY   90  70  51 SW7       30.09F HX  95
COVINGTON      MOSUNNY   89  65  44 W9        30.08F HX  91
FRANKFORT      PTSUNNY   88  69  53 NW5       30.08F HX  92
$$

KYZ054-064>069-076>088-106>120-222000-
SOUTHEAST KENTUCKY

CITY           SKY/WX    TMP DP  RH WIND       PRES   REMARKS
JACKSON        SUNNY     86  68  54 S3        30.13F
LONDON         MOSUNNY   87  69  54 SE5       30.12F HX  91
SOMERSET       MOSUNNY   88  68  51 CALM      30.11F HX  91
MIDDLESBORO    SUNNY     87  69  54 SW3       30.12F HX  91
MONTICELLO     CLEAR     91  73  55 CALM      30.12F HX  99
$$



USA.gov is the U.S. government's official web portal to all federal, state and local government web resources and services.